User: anonymous   Login
Location: El Hornillo
(40.2499°N, 5.1036°W)
Time: 02:08:58
(UTC+00:00)
Language:

Cosmos 1850 Rocket - Orbit

View from above orbital plane
View from above orbital plane
View from above satellite
View from above satellite

Ground track
Ground track

The orbit data is extracted from the following two-line orbital elements,

1 18096U 87049B   24287.44572271  .00001147  00000-0  39090-3 0  9994
2 18096  74.0436 351.0236 0022218 227.9127 132.0138 14.37456762955861
Epoch (UTC): 13 October 2024 10:41:50
Eccentricity: 0.0022218
inclination: 74.0436°
perigee height: 751 km
apogee height: 783 km
right ascension of ascending node: 351.0236°
argument of perigee: 227.9127°
revolutions per day: 14.37456762
mean anomaly at epoch: 132.0138°
orbit number at epoch: 95586

The dashed part of the orbit path shows where the satellite is in the earth's shadow,  

DLR